EHI
0 0 0 0 0 0 0 0 0 0 0 0 0 0 0 0 0 0 0 0 0 0 0 0 0 0 0 0 0 0 0 0 0 0 0 0 0 0 0 0 0 0 0 0
0 0 0 0 0 0 0 0 0 0 0 0 0 0 0 0 0 0 0 0 0 0 0 0 0 0 0 0 0 0 0 0 0 0 0 0 0 0 0 0 0 0 0 0
0 0 0 0 0 0 0 0 0 0 0 0 0 0 0 0 0 0 0 0 0 0 0 0 0 0 0 0 0 0 0 0 0 0 0 0 0 0 0 0 0 0 0 0
0 0 0 0 0 0 0 0 0 0 0 0 0 0 0 0 0 0 0 0 0 0 0 0 0 0 0 0 0 0 0 0 0 0 0 0 0 0 0 0 0 0 0 0
0 0 0 0 0 0 0 0 0 0 0 0 0 0 0 0 0 0 0 0 0 0 0 0 0 0 0 0 0 0 0 0 0 0 0 0 0 0 0 0 0 0 0 0
0 0 0 0 0 0 0 0 0 0 0 0 0 0 0 0 0 0 0 0 0 0 0 0 0 0 0 0 0 0 0 0 0 0 0 0 0 0 0 0 0 0 0 0
0 0 0 0 0 0 0 0 0 0 0 0 0 0 0 0 0 0 0 0 0 0 0 0 0 0 0 0 0 0 0 0 0 0 0 0 0 0 0 0 0 0 0 0
0 0 0 0 0 0 0 0 0 0 0 0 0 0 0 0 0 0 0 0 0 0 0 0 0 0 0 0 0 0 0 0 0 0 0 0 0 0 0 0 0 0 0 0
0 0 0 0 0 0 0 0 0 0 0 0 0 0 0 0 0 0 0 0 0 0 0 0 0 0 0 0 0 0 0 0 0 0 0 0 0 0 0 0 0 0 0 0
0 0 0 0 0 0 0 0 0 0 0 0 0 0 0 0 0 0 0 0 0 0 0 0 0 0 0 0 0 0 0 0 0 0 0 0 0 0 0 0 0 0 0 0
0 0 0 0 0 0 0 0 0 0 0 0 0 0 0 0 0 0 0 0 0 0 0 0 0 0 0 0 0 0 0 0 0 0 0 0 0 0 0 0 0 0 0 0
0 0 0 0 0 0 0 0 0 0 0 0 0 0 0 0 0 0 0 0 0 0 0 0 0 0 0 0 0 0 0 0 0 0 0 0 0 0 0 0 0 0 0 0
0 0 0 0 0 0 0 0 0 0 0 0 0 0 0 0 0 0 0 0 0 0 0 0 0 0 0 0 0 0 0 0 0 0 0 0 0 0 0 0 0 0 0 0
0 0 0 0 0 0 0 0 0 0 0 0 0 0 0 0 0 0 0 0 0 0 0 0 0 0 0 0 0 0 0 0 0 0 0 0 0 0 0 0 0 0 0 0
0 0 0 0 0 0 0 0 0 0 0 0 0 0 0 0 0 0 0 0 0 0 0 0 0 0 0 0 0 0 0 0 0 0 0 0 0 0 0 0 0 0 0 0
0 0 0 0 0 0 0 0 0 0 0 0 0 0 0 0 0 0 0 0 0 0 0 0 0 0 0 0 0 0 0 0 0 0 0 0 0 0 0 0 0 0 0 0
0 0 0 0 0 0 0 0 0 0 0 0 0 0 0 0 0 0 0 0 0 0 0 0 0 0 0 0 0 0 0 0 0 0 0 0 0 0 0 0 0 0 0 0
0 0 0 0 0 0 0 0 0 0 0 0 0 0 0 0 0 0 0 0 0 0 0 0 0 0 0 0 0 0 0 0 0 0 0 0 0 0 0 0 0 0 0 0
0 0 0 0 0 0 0 0 0 0 0 0 0 0 0 0 0 0 0 0 0 0 0 0 0 0 0 0 0 0 0 0 0 0 0 0 0 0 0 0 0 0 0 0
0 0 0 0 0 0 0 0 0 0 0 0 0 0 0 0 0 0 0 0 0 0 0 0 0 0 0 0 0 0 0 0 0 0 0 0 0 0 0 0 0 0 0 0
0 0 0 0 0 0 0 0 0 0 0 0 0 0 0 0 0 0 0 0 0 0 0 0 0 0 0 0 0 0 0 0 0 0 0 0 0 0 0 0 0 0 0 0
0 0 0 0 0 0 0 0 0 0 0 0 0 0 0 0 0 0 0 0 0 0 0 0 0 0 0 0 0 0 0 0 0 0 0 0 0 0 0 0 0 0 0 0
0 0 0 0 0 0 0 0 0 0 0 0 0 0 0 0 0 0 0 0 0 0 0 0 0 0 0 0 0 0 0 0 0 0 0 0 0 0 0 0 0 0 0 0
0 0 0 0 0 0 0 0 0 0 0 0 0 0 0 0 0 0 0 0 0 0 0 0 0 0 0 0 0 0 0 0 0 0 0 0 0 0 0 0 0 0 0 0
0 0 0 0 0 0 0 0 0 0 0 0 0 0 0 0 0 0 0 0 0 0 0 0 0 0 0 0 0 0 0 0 0 0 0 0 0 0 0 0 0 0 0 0
0 0 0 0 0 0 0 0 0 0 0 0 0 0 0 0 0 0 0 0 0 0 0 0 0 0 0 0 0 0 0 0 0 0 0 0 0 0 0 0 0 0 0 0
0 0 0 0 0 0 0 0 0 0 0 0 0 0 0 0 0 0 0 0 0 0 0 0 0 0 0 0 0 0 0 0 0 0 0 0 0 0 0 0 0 0 0 0
Wind_Speed
12 12 10 12 13 12 15 15 14 17 19 20 18 17 15 13 12 11 10 10 9 8 7 7 7 6 6 6 6 5 6 6 6 6 5 5 6 6 6 6 7 7 7 8
11 12 12 15 17 17 18 18 19 21 23 19 17 14 13 11 10 10 10 10 9 8 8 8 8 6 6 6 6 5 6 6 6 5 5 5 5 5 6 6 5 5 6 7
10 8 9 14 14 15 13 14 14 17 17 15 14 13 12 11 10 10 10 10 9 8 8 8 7 5 5 5 5 6 6 6 6 5 5 5 5 5 6 5 4 4 4 5
6 5 12 7 2 7 11 13 13 14 15 14 13 13 11 9 10 9 9 9 8 8 8 7 6 5 5 5 5 5 5 5 5 5 6 5 5 6 6 4 3 3 4 4
5 8 12 9 5 5 7 10 9 11 12 12 9 9 8 6 7 8 9 8 8 7 7 7 6 5 5 5 5 5 5 5 5 5 5 6 6 6 5 4 3 3 3 3
7 9 10 6 1 2 4 8 4 6 7 7 7 7 7 7 9 9 8 7 7 7 7 7 7 5 5 5 5 5 5 6 5 5 5 6 6 6 5 3 2 2 2 2
12 11 10 5 2 4 6 4 0 3 5 6 7 8 10 11 10 9 8 8 7 7 6 6 6 5 5 5 6 6 6 5 5 5 5 5 6 5 3 3 2 2 2 1
8 10 10 3 5 7 6 4 4 6 7 8 10 12 12 11 11 10 9 8 7 7 7 6 5 5 5 6 6 6 5 5 5 5 5 4 4 4 3 2 2 1 0 1
8 8 6 4 7 8 7 8 9 9 10 10 11 12 12 11 11 10 9 9 8 8 8 7 5 5 6 6 5 5 5 5 5 5 5 4 4 3 3 2 1 1 0 0
9 11 11 10 11 10 10 11 11 10 10 10 11 12 12 11 10 10 9 8 8 8 8 7 6 6 6 6 5 5 5 5 5 4 5 4 3 2 2 1 1 1 1 1
13 13 12 12 12 12 10 10 10 10 10 10 11 12 12 11 10 9 8 8 7 7 8 8 7 6 6 5 4 5 5 5 4 4 4 3 3 2 2 2 2 2 2 2
12 12 11 11 9 10 10 10 10 11 11 10 10 11 11 10 10 9 9 8 7 8 8 7 6 6 5 4 4 4 4 4 3 3 3 2 2 2 1 2 3 3 3 3
14 12 11 11 10 9 10 10 9 9 10 10 9 9 10 10 9 9 8 8 8 8 7 7 6 6 5 4 4 4 4 4 3 3 2 2 1 1 2 3 4 3 3 4
10 9 11 10 8 7 7 8 7 8 8 8 8 8 8 9 9 9 9 8 8 7 7 6 6 6 5 4 4 4 4 4 3 3 2 2 1 1 1 1 2 3 3 3
7 7 7 6 6 6 5 5 6 7 7 7 7 8 8 8 9 9 8 7 6 6 6 5 5 6 4 4 4 4 3 2 2 2 2 1 1 1 1 1 1 2 2 2
5 5 5 5 5 5 5 5 6 7 7 7 7 7 7 8 8 8 7 6 5 6 5 5 5 5 4 3 3 3 2 3 3 2 1 1 0 1 0 1 1 1 2 2
4 4 4 5 6 6 5 5 5 6 7 7 7 7 7 6 6 6 6 5 5 5 5 5 4 4 3 3 3 2 2 2 3 2 1 1 0 1 0 0 1 1 2 2
5 5 5 5 5 5 5 5 5 6 6 7 7 6 5 5 6 6 6 5 4 4 4 3 3 3 3 2 2 2 1 1 1 1 1 1 1 1 1 0 1 1 2 2
3 3 3 3 4 4 5 5 5 5 6 6 6 6 5 5 5 5 5 4 4 4 4 3 3 3 2 2 2 1 1 1 1 1 1 1 1 1 0 1 1 1 1 1
2 2 3 3 3 3 4 4 5 5 5 5 5 5 5 5 5 4 4 4 4 4 4 4 3 3 2 2 2 1 1 1 1 1 1 1 1 1 1 1 1 1 1 1
2 2 2 3 3 3 4 4 4 5 5 5 5 5 5 5 5 4 4 4 4 3 3 4 3 2 2 2 2 1 1 1 1 1 1 1 1 1 1 1 1 1 1 1
3 3 3 3 3 4 4 4 4 5 5 5 5 5 5 5 4 4 4 4 4 5 4 3 2 2 3 2 1 1 1 1 1 1 1 1 1 1 1 1 2 1 1 1
3 3 3 4 4 4 5 4 4 4 5 5 5 5 5 5 4 4 4 3 3 4 4 3 3 4 4 2 1 1 1 1 1 1 1 1 2 1 1 2 2 1 1 1
3 3 4 4 3 4 5 5 5 4 5 5 5 5 5 4 4 3 3 5 5 6 4 3 4 4 4 2 1 1 1 2 2 2 2 2 2 2 1 1 2 1 1 0
3 3 4 4 4 3 4 5 5 5 4 4 5 5 4 3 3 3 4 4 5 5 3 4 5 4 3 1 1 2 2 2 2 2 2 2 2 2 2 1 1 1 0 1
3 4 4 4 4 4 4 3 4 4 4 4 4 4 3 3 4 4 3 3 4 5 4 3 3 3 2 1 2 2 2 2 3 2 2 2 2 2 1 1 1 1 1 1
4 3 3 3 3 3 3 3 4 4 4 4 5 4 4 4 3 3 3 3 3 2 2 2 2 2 2 2 2 2 2 2 2 2 2 2 2 2 1 1 1 1 1 1
Wind_Direction
261 271 264 259 257 240 230 238 252 267 274 283 292 302 307 308 310 313 315 316 317 314 315 317 317 313 315 313 312 310 305 302 299 291 294 297 296 292 284 272 260 249 239 229
264 261 260 265 261 252 247 247 252 264 272 279 291 298 298 304 309 310 312 315 316 315 315 315 315 312 313 310 312 310 301 303 305 298 299 302 300 298 295 287 267 247 237 230
265 275 274 262 253 247 241 240 247 257 268 288 295 298 300 309 309 305 309 313 310 309 311 311 309 305 305 304 307 305 306 306 307 310 307 304 305 304 305 295 279 263 246 234
262 264 249 263 274 254 253 255 249 259 274 286 294 301 300 300 299 303 308 306 306 309 310 312 309 301 301 299 295 300 302 303 309 312 309 308 307 305 306 296 279 270 257 246
238 251 265 270 246 226 241 262 257 260 275 290 302 299 290 306 311 308 307 302 302 304 307 311 309 302 299 293 295 299 302 303 304 306 307 310 307 304 306 294 281 276 257 249
234 248 257 272 235 221 244 264 265 261 278 294 302 296 310 332 324 316 311 305 305 306 305 304 305 301 296 299 302 298 296 297 300 303 303 303 306 308 306 289 284 286 277 261
238 249 261 275 156 172 232 277 354 276 290 293 291 294 305 310 312 313 309 306 304 300 297 298 302 298 294 298 296 297 298 299 303 304 300 298 305 308 303 298 288 283 290 287
227 238 250 164 165 217 266 310 285 283 286 289 291 296 298 302 307 308 307 303 299 296 296 300 298 289 288 289 293 297 297 297 301 306 307 307 305 306 302 296 276 281 333 350
224 244 287 221 237 257 275 279 282 282 285 287 288 293 297 300 302 303 300 299 298 294 294 297 293 285 284 289 294 294 294 297 302 307 308 304 303 307 307 304 299 300 336 319
255 260 269 268 268 271 271 273 278 281 286 287 287 291 294 296 296 296 296 294 294 290 289 294 296 288 283 289 289 286 290 296 299 300 304 308 308 302 296 297 315 329 312 297
258 270 279 270 270 274 278 278 280 282 283 284 286 289 291 291 291 291 291 291 289 285 286 290 295 291 288 286 284 286 290 293 296 294 298 309 310 303 288 278 288 281 276 270
258 266 267 276 279 279 278 278 280 284 285 284 284 285 288 287 288 288 287 289 288 285 285 288 290 290 291 288 280 282 287 291 291 291 293 301 305 322 350 311 320 311 312 308
264 277 275 279 282 281 280 282 283 281 281 285 287 285 286 286 288 287 284 284 283 284 284 285 285 287 291 291 282 276 278 284 286 285 287 295 300 330 352 4 9 7 1 346
266 270 270 273 281 286 286 287 286 284 284 283 286 287 285 285 286 284 283 284 284 284 283 283 284 287 293 291 283 281 284 287 290 284 283 281 290 311 327 354 348 355 4 2
263 261 267 283 287 289 294 294 293 292 295 295 292 288 287 285 284 285 288 289 286 280 278 280 282 287 296 289 280 282 286 289 290 291 291 292 307 335 2 22 353 344 349 10
273 267 265 269 277 288 297 296 293 296 299 298 297 295 291 286 287 290 292 290 283 280 282 281 281 288 293 283 278 280 282 291 295 291 290 306 323 340 353 8 338 330 332 339
262 268 273 277 281 287 291 291 290 292 296 296 298 301 300 298 296 297 301 302 293 288 286 281 286 296 291 280 275 278 283 285 288 294 296 289 292 283 268 277 310 322 322 332
255 264 266 271 276 283 291 297 297 298 299 302 305 304 302 300 300 304 310 313 310 304 298 296 304 306 300 296 289 282 282 290 302 301 290 285 288 280 254 265 302 316 329 344
272 275 283 286 288 285 287 294 300 302 304 305 302 300 300 299 300 303 307 307 301 302 309 317 318 315 307 304 302 283 280 289 311 312 302 302 301 289 262 283 303 313 323 326
307 299 293 297 303 296 294 300 304 305 307 305 302 303 306 308 308 307 304 297 291 293 299 304 305 305 304 298 298 283 267 273 285 289 286 279 288 288 283 293 299 305 309 312
317 313 306 305 306 305 302 303 304 305 309 309 303 301 303 308 310 304 299 301 309 314 305 300 302 304 308 307 294 276 260 264 270 276 274 282 292 282 282 293 297 294 296 303
309 305 304 304 304 309 313 311 304 304 307 307 303 301 301 304 307 303 292 284 297 310 312 303 300 298 303 302 285 277 272 265 266 270 268 268 274 271 275 287 290 291 289 290
302 300 299 301 302 304 309 309 307 304 302 302 303 302 299 298 298 296 300 304 303 308 309 296 293 294 296 291 273 267 265 264 268 272 273 269 271 267 267 276 282 282 280 285
307 307 305 305 303 299 302 310 310 304 298 297 296 293 291 292 293 285 281 292 302 305 303 300 301 299 294 285 268 261 261 262 265 268 268 266 266 262 260 263 270 273 265 247
304 300 298 298 296 294 298 305 307 304 301 299 300 297 288 280 280 293 296 293 297 304 302 300 303 306 303 287 272 268 268 264 264 264 260 264 265 259 255 257 253 247 218 185
297 294 291 286 284 288 294 297 298 300 302 304 306 305 302 296 288 287 291 294 296 299 300 300 301 302 296 287 277 273 270 272 273 269 263 264 266 258 249 246 240 228 204 185
294 292 291 294 296 293 293 291 290 293 295 296 300 301 300 297 295 294 292 290 295 297 294 293 293 290 282 273 268 269 269 268 266 264 261 257 256 248 235 221 208 202 194 187